San Carlos, CA

3:37 PM PST on December 16, 2017 (GMT -0800)
San Carlos

Weather History for KSQL - September, 2013

Change the Weather History Date:

Friday, September 27, 2013

  Actual Average Record
Temperature  
Mean Temperature 64 °F -  
Max Temperature 77 °F 79 °F 96 °F (1958)
Min Temperature 51 °F 52 °F 43 °F (1948)
Degree Days  
Heating Degree Days 1    
Growing Degree Days 14 (Base 50)    
Moisture  
Dew Point 40 °F    
Average Humidity 50    
Maximum Humidity 77    
Minimum Humidity 17    
Precipitation  
Precipitation 0.00 in - - ()
Sea Level Pressure  
Sea Level Pressure 30.05 in    
Wind  
Wind Speed 1 mph (West)    
Max Wind Speed 12 mph    
Max Gust Speed -    
Visibility 10 miles    
Events      
Averages and records for this station are not official NWS values.
T = Trace of Precipitation, MM = Missing Value Source: NWS Daily Summary

Daily Weather History Graph

Daily Weather History Graph

Search for Another Location

Airport or City:

Trip Planner

Search our weather history database for the weather conditions in past years. The results will help you decide how hot, cold, wet, or windy it might be!

Date:

Astronomy

Sep. 27, 2013 Rise Set
Actual Time 7:01 AM PDT 6:57 PM PDT
Civil Twilight 6:35 AM PDT 7:23 PM PDT
Nautical Twilight 6:04 AM PDT 7:54 PM PDT
Astronomical Twilight 5:34 AM PDT 8:24 PM PDT
Moon 12:08 AM PDT (9/27) 2:33 PM PDT (9/27)
Length of Visible Light 12h 48m
Length of Day
11h 56m
Last Quarter, 44% of the Moon is Illuminated
Sep 27
Last Quarter
Oct 4
New
Oct 11
First Quarter
Oct 18
Full
Oct 26
Last Quarter

Hourly Weather History & Observations

Time (PDT) Temp. Dew Point Humidity Pressure Visibility Wind Dir Wind Speed Gust Speed Precip Events Conditions
12:15 AM 55.4 °F 41.0 °F 58% 30.00 in 10.0 mi Calm Calm - N/A   Clear
12:35 AM 55.4 °F 41.0 °F 58% 30.00 in 10.0 mi Calm Calm - N/A   Clear
12:55 AM 57.2 °F 41.0 °F 55% 30.01 in 10.0 mi Calm Calm - N/A   Clear
1:15 AM 57.2 °F 41.0 °F 55% 30.01 in 10.0 mi Calm Calm - N/A   Clear
1:35 AM 55.4 °F 46.4 °F 72% 30.01 in 10.0 mi Calm Calm - N/A   Clear
1:55 AM 55.4 °F 42.8 °F 63% 30.02 in 10.0 mi Calm Calm - N/A   Clear
2:15 AM 55.4 °F 41.0 °F 58% 30.02 in 10.0 mi Calm Calm - N/A   Clear
2:35 AM 55.4 °F 41.0 °F 58% 30.02 in 10.0 mi Calm Calm - N/A   Clear
2:55 AM 53.6 °F 41.0 °F 62% 30.02 in 10.0 mi Calm Calm - N/A   Clear
3:15 AM 53.6 °F 41.0 °F 62% 30.02 in 10.0 mi Calm Calm - N/A   Scattered Clouds
3:35 AM 53.6 °F 41.0 °F 62% 30.02 in 10.0 mi Calm Calm - N/A   Overcast
3:55 AM 53.6 °F 41.0 °F 62% 30.03 in 10.0 mi Calm Calm - N/A   Overcast
4:15 AM 53.6 °F 41.0 °F 62% 30.03 in 10.0 mi Calm Calm - N/A   Overcast
4:35 AM 55.4 °F 42.8 °F 63% 30.03 in 10.0 mi Calm Calm - N/A   Mostly Cloudy
4:55 AM 53.6 °F 44.6 °F 72% 30.03 in 10.0 mi Calm Calm - N/A   Overcast
5:15 AM 51.8 °F 42.8 °F 71% 30.03 in 10.0 mi Calm Calm - N/A   Overcast
5:35 AM 53.6 °F 42.8 °F 67% 30.04 in 10.0 mi Calm Calm - N/A   Mostly Cloudy
5:55 AM 53.6 °F 42.8 °F 67% 30.04 in 10.0 mi Calm Calm - N/A   Partly Cloudy
6:15 AM 53.6 °F 44.6 °F 72% 30.05 in 10.0 mi Calm Calm - N/A   Clear
6:35 AM 53.6 °F 46.4 °F 77% 30.06 in 10.0 mi Calm Calm - N/A   Partly Cloudy
6:53 AM 53.6 °F 44.6 °F 72% 30.07 in 10.0 mi SE 3.5 mph - N/A   Clear
6:55 AM 53.6 °F 44.6 °F 72% 30.07 in 10.0 mi SE 3.5 mph - N/A   Clear
7:47 AM 55.4 °F 46.4 °F 72% 30.08 in 10.0 mi Calm Calm - N/A   Clear
8:47 AM 59.0 °F 48.2 °F 67% 30.10 in 10.0 mi ENE 3.5 mph - N/A   Clear
9:47 AM 62.6 °F 48.2 °F 59% 30.11 in 10.0 mi Calm Calm - N/A   Clear
10:49 AM 68.0 °F 41.0 °F 37% 30.11 in 10.0 mi Calm Calm - N/A   Clear
11:51 AM 71.6 °F 37.4 °F 29% 30.11 in 10.0 mi Calm Calm - N/A   Clear
12:47 PM 71.6 °F 37.4 °F 29% 30.10 in 10.0 mi Calm Calm - N/A   Clear
1:47 PM 73.4 °F 39.2 °F 29% 30.08 in 10.0 mi Calm Calm - N/A   Clear
2:51 PM 77.0 °F 28.4 °F 17% 30.05 in 10.0 mi NNW 5.8 mph - N/A   Clear
3:50 PM 77.0 °F 32.0 °F 19% 30.04 in 10.0 mi WNW 10.4 mph - N/A   Clear
4:50 PM 75.2 °F 35.6 °F 24% 30.03 in 10.0 mi NW 8.1 mph - N/A   Clear
5:50 PM 73.4 °F 33.8 °F 23% 30.04 in 10.0 mi WNW 11.5 mph - N/A   Clear
6:50 PM 68.0 °F 32.0 °F 26% 30.05 in 10.0 mi West 10.4 mph - N/A   Clear
7:50 PM 68.0 °F 30.2 °F 24% 30.05 in 10.0 mi WNW 8.1 mph - N/A   Clear
8:47 PM 66.2 °F 32.0 °F 28% 30.06 in 10.0 mi WNW 6.9 mph - N/A   Clear
9:15 PM 66.2 °F 32.0 °F 28% 30.07 in 10.0 mi WNW 5.8 mph - N/A   Clear
9:35 PM 64.4 °F 33.8 °F 32% 30.08 in 10.0 mi NE 3.5 mph - N/A   Clear
9:55 PM 62.6 °F 37.4 °F 39% 30.08 in 10.0 mi Calm Calm - N/A   Clear
10:15 PM 62.6 °F 35.6 °F 37% 30.08 in 10.0 mi SSW 4.6 mph - N/A   Clear
10:35 PM 60.8 °F 33.8 °F 36% 30.08 in 10.0 mi SW 3.5 mph - N/A   Clear
10:55 PM 59.0 °F 35.6 °F 42% 30.08 in 10.0 mi SW 3.5 mph - N/A   Clear
11:15 PM 60.8 °F 33.8 °F 36% 30.07 in 10.0 mi Calm Calm - N/A   Clear
11:35 PM 59.0 °F 41.0 °F 51% 30.07 in 10.0 mi Calm Calm - N/A   Clear
11:55 PM 57.2 °F 37.4 °F 48% 30.07 in 10.0 mi Calm Calm - N/A   Clear